{"data":{"norad_id":62750,"epoch":"2026-09-21T00:30:50.816736Z","epoch_age_seconds":126219,"freshness":"FRESH","line1":"1 62750U 25014R   26264.02142149  .00009713  00000+0  36189-3 0  9994","line2":"2 62750  43.0056 131.0144 0000946 351.7500   8.3336 15.27592491 93138","mean_motion":15.27592491,"eccentricity":9.46e-5,"inclination_deg":43.0056,"raan_deg":131.0144,"arg_perigee_deg":351.75,"mean_anomaly_deg":8.3336,"bstar":0.00036189,"rev_number":9313,"period_min":94.265977902087,"perigee_km":482.36262908048,"apogee_km":483.66075841333,"semimajor_km":6861.1486937469,"source":"CELESTRAK","updated_at":"2026-09-22T09:00:49.658999Z"}}